Trabzon, Turkey

12:12 AM +03 on August 23, 2017 (GMT +0300)
Trabzon

Weather History for LTCG - January, 2013

Change the Weather History Date:

Sunday, January 27, 2013

  Actual Average Record
Temperature  
Mean Temperature 56 °F -  
Max Temperature 60 °F 49 °F 73 °F (2007)
Min Temperature 51 °F 38 °F 28 °F (1997)
Degree Days  
Heating Degree Days 10    
Growing Degree Days 6 (Base 50)    
Moisture  
Dew Point 39 °F    
Average Humidity 55    
Maximum Humidity 88    
Minimum Humidity 14    
Precipitation  
Precipitation 0.01 in - - ()
Sea Level Pressure  
Sea Level Pressure 29.80 in    
Wind  
Wind Speed 5 mph ()    
Max Wind Speed 15 mph    
Max Gust Speed 14 mph    
Visibility 6.5 miles    
Events Rain    
Averages and records for this station are not official NWS values.
T = Trace of Precipitation, MM = Missing Value Source: Averaged Metar Reports

Daily Weather History Graph

Daily Weather History Graph

Search for Another Location

Airport or City:

Trip Planner

Search our weather history database for the weather conditions in past years. The results will help you decide how hot, cold, wet, or windy it might be!

Date:

Astronomy

Jan. 27, 2013 Rise Set
Actual Time 6:36 AM EET 4:31 PM EET
Civil Twilight 6:06 AM EET 5:01 PM EET
Nautical Twilight 5:33 AM EET 5:34 PM EET
Astronomical Twilight 5:00 AM EET 6:06 PM EET
Moon 5:05 PM EET (1/27) 6:16 AM EET (1/27)
Length of Visible Light 10h 54m
Length of Day
9h 55m
Full, 100% of the Moon is Illuminated
Jan 27
Full
Feb 3
Last Quarter
Feb 10
New
Feb 17
First Quarter
Feb 25
Full

Hourly Weather History & Observations

Time (EET) Temp. Dew Point Humidity Pressure Visibility Wind Dir Wind Speed Gust Speed Precip Events Conditions
12:20 AM 62.6 °F 28.4 °F 27% 29.83 in 6.2 mi SW 6.9 mph - N/A   Mostly Cloudy
12:50 AM 62.6 °F 28.4 °F 27% 29.83 in 6.2 mi Variable 3.5 mph - N/A   Mostly Cloudy
1:20 AM 68.0 °F 24.8 °F 20% 29.83 in 6.2 mi SW 11.5 mph - N/A   Mostly Cloudy
1:50 AM 62.6 °F 26.6 °F 26% 29.80 in 6.2 mi SW 6.9 mph - N/A   Mostly Cloudy
2:00 AM 63 °F 26 °F 14% 29.83 in 12 mi SW 6.9 mph - -   Mostly Cloudy
2:20 AM 60.8 °F 28.4 °F 29% 29.80 in 6.2 mi NE 2.3 mph - N/A   Mostly Cloudy
2:50 AM 60.8 °F 28.4 °F 29% 29.80 in 6.2 mi Calm Calm - N/A   Mostly Cloudy
3:20 AM 62.6 °F 28.4 °F 27% 29.77 in 6.2 mi SSE 5.8 mph - N/A   Mostly Cloudy
3:50 AM 60.8 °F 28.4 °F 29% 29.77 in 6.2 mi South 5.8 mph - N/A   Mostly Cloudy
4:20 AM 60.8 °F 28.4 °F 29% 29.77 in 6.2 mi South 6.9 mph - N/A   Mostly Cloudy
4:50 AM 60.8 °F 30.2 °F 31% 29.77 in 6.2 mi SSW 5.8 mph - N/A   Mostly Cloudy
5:20 AM 60.8 °F 30.2 °F 31% 29.77 in 6.2 mi Variable 1.2 mph - N/A   Mostly Cloudy
5:50 AM 60.8 °F 30.2 °F 31% 29.77 in 6.2 mi South 6.9 mph - N/A   Mostly Cloudy
6:20 AM 62.6 °F 30.2 °F 30% 29.77 in 6.2 mi SSW 6.9 mph - N/A   Mostly Cloudy
6:50 AM 60.8 °F 30.2 °F 31% 29.77 in 6.2 mi Variable 1.2 mph - N/A   Mostly Cloudy
7:20 AM 59.0 °F 35.6 °F 42% 29.74 in 6.2 mi NE 3.5 mph - N/A   Mostly Cloudy
7:50 AM 60.8 °F 33.8 °F 36% 29.77 in 6.2 mi Variable 2.3 mph - N/A   Mostly Cloudy
8:00 AM 60 °F 32 °F 23% 29.77 in 12 mi ESE 2.3 mph - -   Mostly Cloudy
8:20 AM 59.0 °F 35.6 °F 42% 29.77 in 6.2 mi South 4.6 mph - N/A   Mostly Cloudy
8:50 AM 57.2 °F 37.4 °F 48% 29.77 in 6.2 mi SSE 4.6 mph - N/A   Mostly Cloudy
9:20 AM 59.0 °F 33.8 °F 39% 29.74 in 6.2 mi Variable 1.2 mph - N/A   Mostly Cloudy
9:50 AM 59.0 °F 35.6 °F 42% 29.77 in 6.2 mi SSE 5.8 mph - N/A   Mostly Cloudy
10:20 AM 57.2 °F 39.2 °F 51% 29.74 in 6.2 mi SE 5.8 mph - N/A   Mostly Cloudy
10:50 AM 55.4 °F 42.8 °F 63% 29.74 in 6.2 mi Variable 1.2 mph - N/A   Mostly Cloudy
11:20 AM 57.2 °F 41.0 °F 55% 29.74 in 6.2 mi SE 9.2 mph - N/A   Mostly Cloudy
11:50 AM 59.0 °F 41.0 °F 51% 29.74 in 6.2 mi South 4.6 mph - N/A Rain Light Rain Showers
12:20 PM 60.8 °F 42.8 °F 52% 29.74 in 6.2 mi SW 8.1 mph - N/A   Mostly Cloudy
12:50 PM 59.0 °F 44.6 °F 59% 29.74 in 6.2 mi WSW 8.1 mph - N/A Rain Light Rain Showers
1:20 PM 59.0 °F 42.8 °F 55% 29.74 in 6.2 mi WSW 10.4 mph - N/A Rain Light Rain Showers
1:50 PM 57.2 °F 46.4 °F 67% 29.74 in 6.2 mi Variable 2.3 mph - N/A Rain Light Rain Showers
2:00 PM 58 °F 46 °F 53% 29.76 in 6 mi 2.3 mph - - Rain Light Rain Showers
2:20 PM 57.2 °F 44.6 °F 63% 29.74 in 6.2 mi Variable 2.3 mph - N/A   Mostly Cloudy
2:50 PM 55.4 °F 46.4 °F 72% 29.74 in 6.2 mi Variable 1.2 mph - N/A   Mostly Cloudy
3:20 PM 55.4 °F 46.4 °F 72% 29.77 in 6.2 mi SE 5.8 mph - N/A   Mostly Cloudy
3:50 PM 55.4 °F 46.4 °F 72% 29.77 in 3.7 mi West 13.8 mph - N/A   Mostly Cloudy
4:20 PM 55.4 °F 46.4 °F 72% 29.80 in 6.2 mi West 11.5 mph - N/A   Mostly Cloudy
4:50 PM 53.6 °F 48.2 °F 82% 29.80 in 6.2 mi West 13.8 mph - N/A   Mostly Cloudy
5:20 PM 51.8 °F 48.2 °F 88% 29.83 in 6.2 mi West 13.8 mph - N/A Rain Light Rain Showers
5:50 PM 51.8 °F 46.4 °F 82% 29.83 in 6.2 mi West 15.0 mph - N/A   Mostly Cloudy
6:20 PM 53.6 °F 46.4 °F 77% 29.83 in 6.2 mi West 8.1 mph - N/A   Mostly Cloudy
6:50 PM 51.8 °F 46.4 °F 82% 29.83 in 6.2 mi SE 9.2 mph - N/A   Mostly Cloudy
7:20 PM 53.6 °F 46.4 °F 77% 29.83 in 6.2 mi Variable 1.2 mph - N/A   Mostly Cloudy
7:50 PM 51.8 °F 46.4 °F 82% 29.86 in 6.2 mi SE 4.6 mph - N/A   Mostly Cloudy
8:00 PM 52 °F 47 °F 77% 29.86 in 12 mi SE 4.6 mph - -   Partly Cloudy
8:20 PM 51.8 °F 46.4 °F 82% 29.86 in 6.2 mi SE 6.9 mph - N/A   Mostly Cloudy
8:50 PM 51.8 °F 46.4 °F 82% 29.86 in 6.2 mi East 5.8 mph - N/A   Mostly Cloudy
9:20 PM 51.8 °F 46.4 °F 82% 29.86 in 6.2 mi East 4.6 mph - N/A   Mostly Cloudy
9:50 PM 51.8 °F 48.2 °F 88% 29.86 in 6.2 mi East 2.3 mph - N/A   Mostly Cloudy
10:20 PM 51.8 °F 46.4 °F 82% 29.86 in 6.2 mi ESE 4.6 mph - N/A   Mostly Cloudy
10:50 PM 51.8 °F 46.4 °F 82% 29.89 in 6.2 mi Variable 1.2 mph - N/A   Scattered Clouds
11:20 PM 51.8 °F 46.4 °F 82% 29.89 in 6.2 mi Variable 1.2 mph 13.8 mph N/A   Mostly Cloudy
11:50 PM 51.8 °F 46.4 °F 82% 29.89 in 6.2 mi Calm Calm - N/A   Mostly Cloudy